Date String (YYYY-MM-DD hh:mm:ss) UTC,Instrument flags,absolute air pressure of the measurement (hPa),sample flow rate (lpm),inlet stack bypass flow (lpm),air temperature of the measurement (°C),ambient temperature measured by the external sensor (°C),aerosol sample conditioner tube jacket temperature (°C),OPC LED temperature (°C),internal box temperature (°C),relative humidity of the measurement (%),span deviation,mass concentration of particles derived from Lorenz-Mie calculation of OPC scattering (μg/m³),mass concentration of particles derived from Lorenz-Mie calculation of OPC scattering (μg/m³),mass concentration of particles derived from Lorenz-Mie calculation of OPC scattering (μg/m³)
DateTimeUTC,F1_M11,P_M11,Q1_M11,Q2_M11,T1_M11,T2_M11,T3_M11,T4_M11,T5_M11,U1_M11,ZSPAN_M11,X0_M11,X2_M11,X1_M11
2024-01-07 21:00:00,SystemResetWarning,0812.1,5.00,000.00,020.1,019.5,000.0,028.4,021.4,7.0,0000.0,0004.73,0001.94,0001.49
2024-01-07 21:01:00,SystemResetWarning,0812.1,5.00,000.00,020.1,019.5,000.0,028.4,021.4,7.0,0000.0,0003.89,0001.93,0001.48
2024-01-07 21:02:00,SystemResetWarning,0812.1,5.00,000.00,020.1,019.5,000.0,028.4,021.4,7.1,0000.0,0003.81,0001.92,0001.48
2024-01-07 21:03:00,SystemResetWarning,0812.1,5.00,000.00,020.1,019.5,000.0,028.4,021.4,7.1,0000.0,0003.94,0001.91,0001.47
2024-01-07 21:04:00,SystemResetWarning,0812.1,5.00,000.00,020.1,019.5,000.0,028.4,021.4,7.1,0000.0,0003.29,0001.87,0001.47
2024-01-07 21:05:00,SystemResetWarning,0812.1,5.00,000.00,020.2,019.5,000.0,028.4,021.4,7.1,0000.0,0003.77,0001.92,0001.49
2024-01-07 21:06:00,SystemResetWarning,0812.1,5.00,000.00,020.2,019.6,000.0,028.4,021.4,7.1,0000.0,0005.01,0001.96,0001.50
2024-01-07 21:07:00,SystemResetWarning,0812.1,5.00,000.00,020.2,019.6,000.0,028.4,021.4,7.1,0000.0,0005.33,0001.95,0001.50
2024-01-07 21:08:00,SystemResetWarning,0812.1,5.00,000.00,020.2,019.6,000.0,028.4,021.5,7.1,0000.0,0005.29,0001.92,0001.50
2024-01-07 21:09:00,SystemResetWarning,0812.1,5.00,000.00,020.2,019.6,000.0,028.5,021.5,7.1,0000.0,0005.30,0001.94,0001.52
2024-01-07 21:10:00,SystemResetWarning,0812.1,5.00,000.00,020.2,019.6,000.0,028.5,021.5,7.0,0000.0,0005.23,0001.92,0001.53
2024-01-07 21:11:00,SystemResetWarning,0812.1,5.00,000.00,020.2,019.6,000.0,028.5,021.5,7.0,0000.0,0005.37,0001.97,0001.55
2024-01-07 21:12:00,SystemResetWarning,0812.1,5.00,000.00,020.2,019.7,000.0,028.5,021.6,7.0,0000.0,0005.59,0002.06,0001.58
2024-01-07 21:13:00,SystemResetWarning,0812.2,5.00,000.00,020.2,019.7,000.0,028.5,021.6,7.0,0000.0,0005.73,0002.14,0001.60
2024-01-07 21:14:00,SystemResetWarning,0812.2,5.00,000.00,020.3,019.7,000.0,028.5,021.6,7.0,0000.0,0005.64,0002.15,0001.61
2024-01-07 21:15:00,SystemResetWarning,0812.3,5.00,000.00,020.3,019.8,000.0,028.5,021.6,7.0,0000.0,0005.74,0002.22,0001.63
2024-01-07 21:16:00,SystemResetWarning,0812.3,4.99,000.00,020.3,019.8,000.0,028.5,021.6,7.0,0000.0,0005.43,0002.22,0001.65
2024-01-07 21:17:00,SystemResetWarning,0812.3,4.99,000.00,020.3,019.8,000.0,028.5,021.7,7.0,0000.0,0004.95,0002.19,0001.66
2024-01-07 21:18:00,SystemResetWarning,0812.3,4.99,000.00,020.3,019.8,000.0,028.5,021.7,7.0,0000.0,0004.51,0002.18,0001.68
2024-01-07 21:19:00,SystemResetWarning,0812.3,5.00,000.00,020.3,019.8,000.0,028.6,021.7,7.0,0000.0,0004.37,0002.20,0001.70
2024-01-07 21:20:00,SystemResetWarning,0812.4,5.01,000.00,020.3,019.8,000.0,028.6,021.7,7.0,0000.0,0004.44,0002.24,0001.69
2024-01-07 21:21:00,SystemResetWarning,0812.4,5.00,000.00,020.4,019.8,000.0,028.6,021.7,7.0,0000.0,0004.50,0002.28,0001.71
2024-01-07 21:22:00,SystemResetWarning,0812.4,5.00,000.00,020.4,019.9,000.0,028.6,021.7,7.0,0000.0,0004.50,0002.28,0001.72
2024-01-07 21:23:00,SystemResetWarning,0812.4,5.00,000.00,020.4,019.9,000.0,028.6,021.8,7.0,0000.0,0004.53,0002.27,0001.72
2024-01-07 21:24:00,SystemResetWarning,0812.4,4.99,000.00,020.4,019.9,000.0,028.6,021.8,7.0,0000.0,0004.37,0002.19,0001.71
2024-01-07 21:25:00,SystemResetWarning,0812.4,4.99,000.00,020.4,019.9,000.0,028.6,021.7,7.0,0000.0,0004.30,0002.19,0001.71
2024-01-07 21:26:00,SystemResetWarning,0812.4,4.99,000.00,020.4,019.9,000.0,028.6,021.7,6.9,0000.0,0004.22,0002.18,0001.71
2024-01-07 21:27:00,SystemResetWarning,0812.4,5.00,000.00,020.4,019.9,000.0,028.7,021.8,6.9,0000.0,0004.09,0002.17,0001.71
2024-01-07 21:28:00,SystemResetWarning,0812.4,5.00,000.00,020.4,019.9,000.0,028.7,021.8,6.9,0000.0,0003.62,0002.17,0001.70
2024-01-07 21:29:00,SystemResetWarning,0812.4,5.01,000.00,020.5,019.9,000.0,028.7,021.8,6.9,0000.0,0004.56,0002.20,0001.69
2024-01-07 21:30:00,SystemResetWarning,0812.4,5.01,000.00,020.5,019.9,000.0,028.7,021.8,6.9,0000.0,0004.76,0002.19,0001.68
2024-01-07 21:31:00,SystemResetWarning,0812.4,5.00,000.00,020.5,020.0,000.0,028.7,021.8,6.9,0000.0,0004.68,0002.14,0001.67
2024-01-07 21:32:00,SystemResetWarning,0812.5,4.99,000.00,020.5,020.0,000.0,028.7,021.8,6.9,0000.0,0004.65,0002.12,0001.67
2024-01-07 21:33:00,SystemResetWarning,0812.5,4.99,000.00,020.5,019.9,000.0,028.7,021.8,6.9,0000.0,0005.09,0002.15,0001.67
2024-01-07 21:34:00,SystemResetWarning,0812.5,5.00,000.00,020.5,019.9,000.0,028.7,021.8,6.9,0000.0,0005.78,0002.17,0001.66
2024-01-07 21:35:00,SystemResetWarning,0812.5,5.01,000.00,020.5,019.9,000.0,028.7,021.8,6.9,0000.0,0005.83,0002.20,0001.68
2024-01-07 21:36:00,SystemResetWarning,0812.5,5.01,000.00,020.5,019.9,000.0,028.7,021.7,6.9,0000.0,0005.87,0002.18,0001.66
2024-01-07 21:37:00,SystemResetWarning,0812.5,5.00,000.00,020.5,019.8,000.0,028.8,021.7,6.9,0000.0,0006.11,0002.18,0001.64
2024-01-07 21:38:00,SystemResetWarning,0812.5,4.99,000.00,020.5,019.8,000.0,028.8,021.7,6.9,0000.0,0007.27,0002.18,0001.62
2024-01-07 21:39:00,SystemResetWarning,0812.5,5.00,000.00,020.5,019.8,000.0,028.8,021.7,6.9,0000.0,0007.08,0002.20,0001.61
2024-01-07 21:40:00,SystemResetWarning,0812.5,5.00,000.00,020.5,019.8,000.0,028.8,021.7,6.9,0000.0,0006.19,0002.19,0001.60
2024-01-07 21:41:00,SystemResetWarning,0812.6,5.00,000.00,020.5,019.8,000.0,028.8,021.7,6.9,0000.0,0005.98,0002.21,0001.59
2024-01-07 21:42:00,SystemResetWarning,0812.5,4.99,000.00,020.5,019.8,000.0,028.8,021.7,6.9,0000.0,0006.13,0002.22,0001.59
2024-01-07 21:43:00,SystemResetWarning,0812.6,5.00,000.00,020.5,019.8,000.0,028.8,021.7,7.0,0000.0,0006.16,0002.21,0001.57
2024-01-07 21:44:00,SystemResetWarning,0812.6,5.00,000.00,020.5,019.8,000.0,028.8,021.6,7.0,0000.0,0005.75,0002.13,0001.54
2024-01-07 21:45:00,SystemResetWarning,0812.6,5.00,000.00,020.5,019.8,000.0,028.8,021.7,7.0,0000.0,0005.34,0002.07,0001.52
2024-01-07 21:46:00,SystemResetWarning,0812.6,5.00,000.00,020.5,019.8,000.0,028.8,021.6,7.0,0000.0,0005.71,0002.05,0001.50
2024-01-07 21:47:00,SystemResetWarning,0812.6,5.00,000.00,020.5,019.7,000.0,028.8,021.6,7.0,0000.0,0005.72,0002.05,0001.49
2024-01-07 21:48:00,SystemResetWarning,0812.6,5.00,000.00,020.5,019.7,000.0,028.8,021.6,7.1,0000.0,0005.53,0002.02,0001.48
2024-01-07 21:49:00,SystemResetWarning,0812.6,5.00,000.00,020.5,019.7,000.0,028.8,021.6,7.1,0000.0,0004.88,0002.00,0001.48
2024-01-07 21:50:00,SystemResetWarning,0812.6,5.00,000.00,020.5,019.6,000.0,028.8,021.5,7.1,0000.0,0004.24,0002.00,0001.48
2024-01-07 21:51:00,SystemResetWarning,0812.6,5.00,000.00,020.5,019.6,000.0,028.8,021.5,7.1,0000.0,0004.20,0001.96,0001.47
2024-01-07 21:52:00,SystemResetWarning,0812.6,5.00,000.00,020.4,019.6,000.0,028.8,021.5,7.1,0000.0,0004.30,0001.96,0001.47
2024-01-07 21:53:00,SystemResetWarning,0812.6,5.00,000.00,020.4,019.6,000.0,028.8,021.6,7.1,0000.0,0004.18,0001.92,0001.46
2024-01-07 21:54:00,SystemResetWarning,0812.6,5.00,000.00,020.4,019.6,000.0,028.8,021.5,7.1,0000.0,0004.40,0001.91,0001.44
2024-01-07 21:55:00,SystemResetWarning,0812.6,5.00,000.00,020.4,019.6,000.0,028.8,021.5,7.1,0000.0,0004.37,0001.87,0001.43
2024-01-07 21:56:00,SystemResetWarning,0812.7,5.00,000.00,020.4,019.6,000.0,028.7,021.5,7.1,0000.0,0004.65,0001.91,0001.43
2024-01-07 21:57:00,SystemResetWarning,0812.6,5.00,000.00,020.4,019.6,000.0,028.7,021.6,7.1,0000.0,0004.92,0001.92,0001.41
2024-01-07 21:58:00,SystemResetWarning,0812.6,5.00,000.00,020.4,019.6,000.0,028.7,021.5,7.2,0000.0,0004.71,0001.88,0001.40
2024-01-07 21:59:00,SystemResetWarning,0812.6,5.00,000.00,020.4,019.6,000.0,028.7,021.5,7.2,0000.0,0004.91,0001.90,0001.39
